QPF
0.01 0.01 0.01 0.01 0.01 0.01 0.01 0.01 0.02 0.03 0.02 0.01 0.00 0.00 0.00 0.00 0.01 0.01 0.00 0.01 0.01 0.00 0.00 0.01 0.01 0.00 0.00 0.00 0.01 0.00 0.01 0.01 0.02 0.02 0.03 0.05 0.07 0.08 0.09 0.09 0.09 0.09 0.10 0.10
0.02 0.01 0.01 0.01 0.01 0.01 0.01 0.01 0.02 0.02 0.02 0.01 0.00 0.00 0.00 0.00 0.01 0.01 0.01 0.01 0.01 0.01 0.00 0.01 0.01 0.01 0.00 0.00 0.01 0.00 0.01 0.01 0.02 0.02 0.03 0.04 0.06 0.08 0.11 0.13 0.15 0.15 0.15 0.15
0.01 0.02 0.02 0.03 0.02 0.01 0.01 0.02 0.03 0.03 0.02 0.01 0.01 0.01 0.01 0.00 0.01 0.01 0.01 0.01 0.01 0.01 0.01 0.01 0.01 0.01 0.01 0.00 0.00 0.00 0.01 0.02 0.02 0.03 0.04 0.04 0.04 0.05 0.07 0.08 0.10 0.10 0.11 0.11
0.01 0.01 0.02 0.03 0.02 0.01 0.01 0.02 0.03 0.03 0.02 0.01 0.01 0.01 0.01 0.01 0.00 0.01 0.01 0.00 0.00 0.01 0.01 0.02 0.01 0.01 0.01 0.01 0.01 0.01 0.01 0.01 0.01 0.02 0.03 0.04 0.04 0.04 0.05 0.06 0.06 0.07 0.07 0.08
0.00 0.01 0.02 0.02 0.02 0.02 0.01 0.02 0.02 0.02 0.02 0.02 0.02 0.01 0.01 0.01 0.01 0.01 0.01 0.00 0.00 0.01 0.01 0.02 0.02 0.02 0.01 0.02 0.02 0.02 0.02 0.02 0.02 0.02 0.03 0.03 0.03 0.03 0.04 0.04 0.04 0.05 0.06 0.07
0.01 0.01 0.01 0.02 0.02 0.02 0.01 0.03 0.02 0.02 0.02 0.02 0.02 0.02 0.02 0.01 0.02 0.02 0.02 0.01 0.01 0.02 0.02 0.01 0.01 0.01 0.01 0.02 0.02 0.02 0.02 0.02 0.02 0.03 0.04 0.04 0.04 0.03 0.02 0.02 0.02 0.02 0.03 0.03
0.00 0.00 0.01 0.01 0.01 0.01 0.02 0.03 0.01 0.01 0.02 0.03 0.03 0.03 0.02 0.02 0.02 0.03 0.03 0.02 0.02 0.03 0.03 0.01 0.01 0.01 0.01 0.01 0.01 0.01 0.02 0.02 0.02 0.02 0.03 0.03 0.04 0.03 0.02 0.01 0.01 0.01 0.02 0.02
0.00 0.01 0.01 0.00 0.00 0.01 0.01 0.01 0.01 0.01 0.01 0.02 0.02 0.02 0.02 0.02 0.02 0.04 0.04 0.03 0.04 0.03 0.03 0.01 0.01 0.01 0.00 0.00 0.00 0.00 0.00 0.00 0.01 0.01 0.01 0.02 0.03 0.03 0.04 0.03 0.03 0.02 0.02 0.02
0.01 0.01 0.01 0.00 0.00 0.00 0.00 0.00 0.01 0.01 0.01 0.01 0.02 0.02 0.03 0.03 0.03 0.04 0.04 0.04 0.05 0.05 0.04 0.02 0.01 0.01 0.01 0.00 0.00 0.00 0.00 0.00 0.00 0.01 0.01 0.01 0.02 0.02 0.03 0.03 0.04 0.04 0.04 0.04
0.00 0.00 0.00 0.00 0.00 0.00 0.00 0.00 0.00 0.00 0.01 0.00 0.01 0.02 0.02 0.02 0.02 0.02 0.02 0.03 0.04 0.05 0.05 0.03 0.02 0.02 0.01 0.01 0.00 0.00 0.00 0.00 0.00 0.00 0.01 0.01 0.01 0.02 0.03 0.03 0.04 0.04 0.03 0.04
0.00 0.00 0.00 0.00 0.00 0.00 0.00 0.00 0.00 0.00 0.00 0.00 0.00 0.00 0.01 0.01 0.01 0.01 0.01 0.01 0.01 0.03 0.05 0.04 0.03 0.03 0.02 0.02 0.01 0.00 0.00 0.00 0.00 0.00 0.00 0.01 0.01 0.01 0.02 0.02 0.03 0.03 0.03 0.03
0.00 0.00 0.00 0.00 0.00 0.00 0.00 0.00 0.00 0.00 0.00 0.00 0.00 0.00 0.00 0.01 0.00 0.00 0.00 0.00 0.00 0.01 0.02 0.03 0.02 0.02 0.02 0.02 0.01 0.01 0.01 0.01 0.01 0.01 0.01 0.01 0.01 0.01 0.02 0.02 0.03 0.02 0.03 0.04
0.00 0.00 0.00 0.00 0.00 0.00 0.00 0.00 0.00 0.00 0.00 0.00 0.00 0.00 0.00 0.00 0.00 0.00 0.00 0.00 0.00 0.00 0.00 0.01 0.01 0.01 0.01 0.01 0.01 0.01 0.01 0.01 0.01 0.01 0.01 0.02 0.02 0.02 0.02 0.03 0.03 0.03 0.03 0.04
0.00 0.00 0.00 0.00 0.00 0.00 0.00 0.00 0.00 0.00 0.00 0.00 0.00 0.00 0.00 0.01 0.01 0.00 0.00 0.00 0.00 0.00 0.00 0.00 0.00 0.00 0.01 0.00 0.01 0.01 0.01 0.01 0.01 0.01 0.02 0.02 0.02 0.02 0.02 0.02 0.03 0.02 0.03 0.03
0.01 0.01 0.00 0.00 0.00 0.00 0.00 0.00 0.00 0.00 0.00 0.00 0.00 0.00 0.00 0.01 0.00 0.00 0.00 0.00 0.00 0.00 0.00 0.00 0.00 0.00 0.00 0.00 0.00 0.00 0.01 0.01 0.01 0.02 0.02 0.02 0.02 0.02 0.02 0.03 0.03 0.02 0.02 0.03
0.00 0.00 0.00 0.00 0.00 0.01 0.01 0.01 0.01 0.00 0.00 0.00 0.00 0.00 0.01 0.00 0.00 0.00 0.00 0.00 0.00 0.00 0.00 0.00 0.00 0.00 0.00 0.00 0.00 0.00 0.00 0.00 0.01 0.01 0.01 0.01 0.02 0.02 0.02 0.02 0.03 0.03 0.03 0.03
0.00 0.00 0.00 0.00 0.00 0.01 0.01 0.01 0.01 0.01 0.01 0.01 0.01 0.01 0.01 0.00 0.00 0.00 0.00 0.00 0.00 0.00 0.00 0.00 0.00 0.00 0.00 0.00 0.00 0.00 0.00 0.00 0.00 0.00 0.01 0.01 0.02 0.02 0.02 0.02 0.03 0.03 0.03 0.04
0.01 0.00 0.01 0.02 0.03 0.04 0.04 0.03 0.02 0.01 0.01 0.01 0.02 0.01 0.01 0.01 0.01 0.01 0.00 0.00 0.00 0.00 0.00 0.00 0.00 0.00 0.00 0.01 0.01 0.01 0.01 0.00 0.00 0.01 0.01 0.01 0.02 0.03 0.03 0.03 0.03 0.04 0.04 0.04
0.00 0.01 0.02 0.02 0.02 0.03 0.03 0.02 0.01 0.01 0.01 0.01 0.01 0.01 0.01 0.01 0.01 0.01 0.00 0.01 0.01 0.01 0.01 0.00 0.01 0.01 0.01 0.01 0.01 0.01 0.01 0.01 0.01 0.01 0.02 0.02 0.02 0.03 0.03 0.03 0.04 0.04 0.04 0.04
0.01 0.01 0.01 0.01 0.01 0.01 0.01 0.01 0.01 0.01 0.01 0.01 0.01 0.01 0.01 0.01 0.01 0.01 0.01 0.01 0.01 0.01 0.01 0.01 0.01 0.01 0.01 0.01 0.01 0.01 0.01 0.01 0.01 0.01 0.02 0.02 0.02 0.02 0.03 0.03 0.04 0.04 0.05 0.04
0.01 0.00 0.00 0.00 0.01 0.01 0.01 0.01 0.01 0.01 0.01 0.01 0.01 0.01 0.01 0.01 0.01 0.01 0.01 0.01 0.01 0.01 0.01 0.01 0.01 0.01 0.02 0.02 0.01 0.01 0.01 0.01 0.01 0.01 0.01 0.02 0.02 0.02 0.02 0.02 0.02 0.03 0.03 0.04
0.00 0.00 0.00 0.00 0.00 0.00 0.01 0.01 0.01 0.01 0.01 0.01 0.01 0.01 0.02 0.02 0.01 0.01 0.01 0.01 0.01 0.01 0.01 0.01 0.01 0.02 0.04 0.02 0.01 0.01 0.01 0.01 0.01 0.01 0.02 0.02 0.02 0.02 0.02 0.02 0.02 0.03 0.03 0.03
0.00 0.00 0.00 0.00 0.01 0.01 0.01 0.01 0.01 0.01 0.01 0.01 0.01 0.01 0.02 0.01 0.01 0.01 0.01 0.01 0.01 0.01 0.01 0.01 0.01 0.02 0.03 0.01 0.01 0.01 0.01 0.01 0.01 0.01 0.02 0.02 0.02 0.02 0.02 0.02 0.02 0.02 0.02 0.02
0.01 0.00 0.00 0.01 0.01 0.01 0.01 0.01 0.01 0.01 0.02 0.02 0.02 0.02 0.02 0.01 0.01 0.01 0.01 0.01 0.01 0.01 0.00 0.01 0.01 0.02 0.01 0.01 0.00 0.01 0.01 0.01 0.01 0.01 0.01 0.01 0.01 0.01 0.01 0.01 0.02 0.02 0.02 0.02
0.01 0.00 0.00 0.01 0.01 0.01 0.01 0.01 0.02 0.02 0.03 0.02 0.02 0.02 0.02 0.01 0.01 0.01 0.01 0.01 0.01 0.01 0.00 0.00 0.01 0.01 0.01 0.01 0.01 0.01 0.01 0.01 0.01 0.01 0.01 0.01 0.01 0.01 0.01 0.02 0.02 0.02 0.02 0.02
0.00 0.00 0.01 0.01 0.02 0.02 0.02 0.02 0.02 0.02 0.03 0.03 0.02 0.02 0.02 0.01 0.01 0.01 0.01 0.01 0.01 0.01 0.01 0.01 0.02 0.02 0.01 0.01 0.01 0.01 0.01 0.01 0.01 0.01 0.01 0.01 0.01 0.01 0.01 0.02 0.02 0.02 0.02 0.02
0.01 0.01 0.01 0.01 0.02 0.02 0.02 0.02 0.02 0.02 0.02 0.02 0.02 0.02 0.01 0.01 0.01 0.01 0.01 0.01 0.01 0.01 0.01 0.01 0.01 0.02 0.02 0.02 0.01 0.01 0.01 0.01 0.01 0.01 0.01 0.02 0.02 0.02 0.02 0.02 0.02 0.02 0.02 0.01
MSLP
1014.52 1014.68 1014.80 1014.87 1014.89 1014.85 1014.73 1014.54 1014.28 1013.97 1013.65 1013.33 1013.06 1012.85 1012.71 1012.64 1012.62 1012.62 1012.61 1012.56 1012.44 1012.24 1011.97 1011.64 1011.24 1010.81 1010.34 1009.83 1009.29 1008.72 1008.09 1007.43 1006.73 1006.04 1005.37 1004.79 1004.34 1004.06 1003.98 1004.10 1004.42 1004.92 1005.54 1006.24
1014.91 1014.97 1014.94 1014.83 1014.64 1014.40 1014.12 1013.81 1013.50 1013.22 1012.98 1012.81 1012.70 1012.67 1012.68 1012.73 1012.78 1012.81 1012.78 1012.69 1012.52 1012.27 1011.95 1011.59 1011.19 1010.77 1010.32 1009.85 1009.33 1008.76 1008.11 1007.40 1006.64 1005.84 1005.07 1004.36 1003.78 1003.37 1003.17 1003.18 1003.41 1003.83 1004.40 1005.08
1015.13 1015.08 1014.90 1014.61 1014.25 1013.84 1013.43 1013.05 1012.73 1012.50 1012.37 1012.34 1012.40 1012.52 1012.68 1012.83 1012.93 1012.97 1012.92 1012.76 1012.52 1012.20 1011.82 1011.42 1011.00 1010.58 1010.15 1009.70 1009.20 1008.63 1007.97 1007.23 1006.41 1005.55 1004.68 1003.87 1003.18 1002.66 1002.35 1002.27 1002.41 1002.75 1003.27 1003.91
1015.13 1014.97 1014.65 1014.22 1013.71 1013.18 1012.69 1012.28 1011.98 1011.82 1011.80 1011.90 1012.11 1012.37 1012.64 1012.86 1013.01 1013.04 1012.95 1012.74 1012.43 1012.05 1011.62 1011.18 1010.74 1010.32 1009.90 1009.45 1008.96 1008.40 1007.74 1006.97 1006.11 1005.19 1004.25 1003.36 1002.57 1001.96 1001.55 1001.37 1001.42 1001.70 1002.16 1002.75
1014.89 1014.62 1014.18 1013.64 1013.04 1012.45 1011.92 1011.51 1011.25 1011.16 1011.24 1011.46 1011.77 1012.13 1012.48 1012.76 1012.92 1012.96 1012.85 1012.60 1012.25 1011.82 1011.37 1010.91 1010.47 1010.04 1009.63 1009.20 1008.72 1008.15 1007.48 1006.69 1005.80 1004.83 1003.83 1002.87 1002.01 1001.30 1000.80 1000.53 1000.50 1000.69 1001.08 1001.62
1014.40 1014.02 1013.51 1012.91 1012.27 1011.65 1011.14 1010.76 1010.55 1010.53 1010.68 1010.98 1011.36 1011.78 1012.17 1012.47 1012.65 1012.68 1012.57 1012.31 1011.95 1011.53 1011.08 1010.64 1010.21 1009.82 1009.42 1009.00 1008.53 1007.97 1007.29 1006.48 1005.56 1004.55 1003.51 1002.49 1001.56 1000.77 1000.18 999.82 999.69 999.79 1000.10 1000.57
1013.64 1013.21 1012.66 1012.05 1011.42 1010.84 1010.37 1010.05 1009.90 1009.93 1010.13 1010.46 1010.88 1011.31 1011.70 1012.01 1012.19 1012.23 1012.12 1011.89 1011.56 1011.18 1010.78 1010.38 1010.00 1009.64 1009.28 1008.90 1008.44 1007.88 1007.20 1006.39 1005.46 1004.43 1003.36 1002.29 1001.30 1000.45 999.77 999.31 999.08 999.07 999.27 999.65
1012.68 1012.22 1011.69 1011.12 1010.56 1010.06 1009.66 1009.41 1009.32 1009.40 1009.61 1009.94 1010.34 1010.75 1011.12 1011.41 1011.58 1011.63 1011.55 1011.36 1011.09 1010.78 1010.45 1010.13 1009.82 1009.52 1009.21 1008.85 1008.43 1007.90 1007.24 1006.44 1005.52 1004.50 1003.42 1002.33 1001.31 1000.40 999.64 999.08 998.74 998.61 998.68 998.94
1011.55 1011.13 1010.66 1010.18 1009.72 1009.34 1009.05 1008.88 1008.85 1008.95 1009.16 1009.46 1009.81 1010.16 1010.48 1010.72 1010.88 1010.93 1010.88 1010.75 1010.56 1010.33 1010.09 1009.86 1009.63 1009.40 1009.14 1008.84 1008.46 1007.97 1007.35 1006.60 1005.72 1004.74 1003.70 1002.63 1001.60 1000.66 999.84 999.19 998.73 998.47 998.41 998.52
1010.35 1010.00 1009.64 1009.29 1008.98 1008.73 1008.56 1008.48 1008.50 1008.61 1008.79 1009.04 1009.31 1009.59 1009.83 1010.02 1010.15 1010.20 1010.18 1010.11 1009.99 1009.84 1009.69 1009.54 1009.38 1009.22 1009.03 1008.78 1008.46 1008.03 1007.49 1006.82 1006.03 1005.13 1004.16 1003.16 1002.16 1001.22 1000.37 999.66 999.10 998.71 998.50 998.46
1009.17 1008.92 1008.70 1008.51 1008.36 1008.25 1008.20 1008.20 1008.26 1008.37 1008.51 1008.68 1008.87 1009.05 1009.21 1009.34 1009.43 1009.47 1009.47 1009.44 1009.38 1009.31 1009.22 1009.14 1009.04 1008.93 1008.80 1008.61 1008.36 1008.01 1007.57 1007.01 1006.35 1005.58 1004.74 1003.84 1002.93 1002.03 1001.19 1000.44 999.81 999.31 998.97 998.78
1008.07 1007.95 1007.88 1007.85 1007.86 1007.90 1007.95 1008.02 1008.10 1008.19 1008.28 1008.37 1008.46 1008.55 1008.62 1008.68 1008.73 1008.76 1008.77 1008.77 1008.75 1008.72 1008.68 1008.64 1008.59 1008.51 1008.42 1008.29 1008.10 1007.86 1007.53 1007.11 1006.61 1006.01 1005.33 1004.59 1003.80 1003.00 1002.21 1001.47 1000.80 1000.23 999.78 999.47
1007.11 1007.13 1007.20 1007.33 1007.47 1007.62 1007.76 1007.87 1007.96 1008.01 1008.04 1008.05 1008.04 1008.04 1008.04 1008.04 1008.05 1008.07 1008.08 1008.10 1008.10 1008.10 1008.09 1008.06 1008.03 1007.98 1007.91 1007.82 1007.70 1007.55 1007.35 1007.08 1006.75 1006.35 1005.86 1005.30 1004.68 1004.00 1003.31 1002.62 1001.96 1001.35 1000.84 1000.45
1006.30 1006.45 1006.65 1006.90 1007.15 1007.38 1007.56 1007.69 1007.75 1007.76 1007.72 1007.65 1007.57 1007.49 1007.43 1007.39 1007.38 1007.39 1007.41 1007.44 1007.47 1007.48 1007.47 1007.45 1007.41 1007.36 1007.31 1007.25 1007.19 1007.12 1007.03 1006.92 1006.76 1006.54 1006.25 1005.89 1005.44 1004.92 1004.35 1003.75 1003.14 1002.56 1002.04 1001.60
1005.64 1005.89 1006.20 1006.53 1006.84 1007.11 1007.30 1007.42 1007.44 1007.39 1007.28 1007.15 1007.00 1006.87 1006.78 1006.72 1006.71 1006.74 1006.78 1006.83 1006.88 1006.90 1006.89 1006.87 1006.82 1006.76 1006.71 1006.66 1006.64 1006.63 1006.64 1006.64 1006.63 1006.58 1006.48 1006.29 1006.02 1005.67 1005.24 1004.75 1004.23 1003.72 1003.23 1002.81
1005.11 1005.44 1005.80 1006.17 1006.51 1006.78 1006.95 1007.02 1007.00 1006.89 1006.72 1006.53 1006.35 1006.20 1006.10 1006.06 1006.08 1006.14 1006.22 1006.31 1006.38 1006.42 1006.42 1006.39 1006.33 1006.26 1006.19 1006.14 1006.13 1006.16 1006.23 1006.32 1006.42 1006.50 1006.54 1006.50 1006.39 1006.19 1005.90 1005.54 1005.13 1004.71 1004.31 1003.96
1004.68 1005.04 1005.43 1005.81 1006.13 1006.37 1006.50 1006.52 1006.43 1006.27 1006.07 1005.85 1005.66 1005.52 1005.45 1005.45 1005.52 1005.64 1005.78 1005.92 1006.04 1006.10 1006.12 1006.09 1006.02 1005.93 1005.84 1005.78 1005.76 1005.80 1005.89 1006.03 1006.19 1006.34 1006.48 1006.55 1006.56 1006.48 1006.31 1006.08 1005.80 1005.49 1005.20 1004.94
1004.30 1004.68 1005.07 1005.43 1005.71 1005.90 1005.97 1005.94 1005.80 1005.61 1005.38 1005.17 1005.00 1004.90 1004.89 1004.96 1005.10 1005.30 1005.51 1005.71 1005.88 1005.98 1006.02 1005.99 1005.92 1005.81 1005.70 1005.62 1005.58 1005.60 1005.68 1005.82 1005.99 1006.18 1006.36 1006.49 1006.57 1006.58 1006.52 1006.40 1006.23 1006.04 1005.86 1005.72
1003.98 1004.35 1004.71 1005.03 1005.27 1005.41 1005.43 1005.35 1005.19 1004.98 1004.77 1004.58 1004.46 1004.43 1004.49 1004.65 1004.88 1005.15 1005.44 1005.70 1005.92 1006.06 1006.12 1006.11 1006.03 1005.91 1005.79 1005.68 1005.61 1005.60 1005.64 1005.76 1005.91 1006.09 1006.27 1006.42 1006.53 1006.59 1006.60 1006.56 1006.48 1006.40 1006.33 1006.29
1003.69 1004.04 1004.38 1004.66 1004.85 1004.94 1004.93 1004.83 1004.67 1004.48 1004.30 1004.17 1004.12 1004.17 1004.31 1004.55 1004.86 1005.21 1005.56 1005.88 1006.13 1006.31 1006.39 1006.39 1006.31 1006.19 1006.05 1005.92 1005.82 1005.78 1005.79 1005.86 1005.98 1006.12 1006.28 1006.42 1006.54 1006.62 1006.66 1006.67 1006.66 1006.65 1006.67 1006.71
1003.44 1003.78 1004.09 1004.33 1004.49 1004.55 1004.53 1004.43 1004.29 1004.15 1004.03 1003.98 1004.01 1004.14 1004.37 1004.68 1005.06 1005.46 1005.85 1006.20 1006.47 1006.66 1006.76 1006.76 1006.70 1006.58 1006.44 1006.30 1006.19 1006.12 1006.11 1006.14 1006.22 1006.33 1006.45 1006.57 1006.67 1006.75 1006.80 1006.84 1006.87 1006.90 1006.96 1007.06
1003.25 1003.58 1003.86 1004.08 1004.22 1004.28 1004.26 1004.19 1004.10 1004.03 1003.99 1004.01 1004.13 1004.34 1004.64 1005.01 1005.42 1005.84 1006.25 1006.60 1006.88 1007.07 1007.17 1007.18 1007.12 1007.01 1006.88 1006.76 1006.65 1006.59 1006.56 1006.59 1006.64 1006.73 1006.82 1006.91 1006.99 1007.06 1007.10 1007.14 1007.18 1007.24 1007.31 1007.42
1003.13 1003.44 1003.71 1003.92 1004.05 1004.12 1004.14 1004.12 1004.09 1004.09 1004.14 1004.26 1004.45 1004.73 1005.08 1005.48 1005.90 1006.33 1006.72 1007.05 1007.31 1007.48 1007.57 1007.58 1007.54 1007.45 1007.35 1007.26 1007.19 1007.15 1007.15 1007.18 1007.24 1007.31 1007.39 1007.47 1007.53 1007.57 1007.61 1007.63 1007.66 1007.70 1007.76 1007.84
1003.08 1003.39 1003.65 1003.85 1003.99 1004.08 1004.14 1004.18 1004.24 1004.32 1004.46 1004.65 1004.92 1005.25 1005.63 1006.04 1006.46 1006.86 1007.21 1007.51 1007.73 1007.88 1007.96 1007.97 1007.95 1007.90 1007.84 1007.80 1007.78 1007.80 1007.84 1007.90 1007.98 1008.07 1008.15 1008.21 1008.26 1008.29 1008.30 1008.30 1008.30 1008.30 1008.32 1008.36
1003.10 1003.40 1003.65 1003.86 1004.01 1004.14 1004.24 1004.35 1004.48 1004.65 1004.87 1005.15 1005.48 1005.85 1006.25 1006.65 1007.05 1007.41 1007.72 1007.98 1008.16 1008.28 1008.35 1008.38 1008.38 1008.38 1008.38 1008.40 1008.45 1008.52 1008.62 1008.73 1008.84 1008.95 1009.04 1009.10 1009.14 1009.14 1009.13 1009.10 1009.06 1009.01 1008.98 1008.96
1003.16 1003.45 1003.70 1003.91 1004.08 1004.24 1004.40 1004.58 1004.79 1005.04 1005.34 1005.68 1006.07 1006.47 1006.89 1007.29 1007.66 1007.99 1008.27 1008.48 1008.64 1008.74 1008.81 1008.86 1008.90 1008.94 1009.01 1009.10 1009.21 1009.34 1009.49 1009.64 1009.78 1009.90 1010.00 1010.05 1010.07 1010.06 1010.01 1009.94 1009.86 1009.77 1009.68 1009.60
1003.24 1003.51 1003.75 1003.96 1004.16 1004.36 1004.58 1004.82 1005.11 1005.44 1005.82 1006.23 1006.66 1007.10 1007.53 1007.94 1008.30 1008.61 1008.86 1009.06 1009.20 1009.31 1009.39 1009.46 1009.54 1009.64 1009.75 1009.90 1010.06 1010.24 1010.42 1010.60 1010.75 1010.87 1010.95 1010.99 1010.98 1010.93 1010.85 1010.74 1010.62 1010.49 1010.35 1010.22
Thickness
5637 5641 5641 5639 5639 5637 5632 5629 5622 5627 5628 5636 5638 5638 5639 5640 5641 5642 5643 5645 5645 5644 5644 5644 5644 5643 5643 5642 5642 5641 5639 5638 5637 5636 5634 5633 5632 5631 5629 5627 5626 5625 5623 5622
5630 5635 5633 5631 5633 5631 5630 5629 5625 5625 5625 5634 5633 5631 5631 5631 5632 5633 5634 5636 5637 5637 5637 5636 5636 5635 5635 5635 5635 5634 5632 5631 5630 5629 5627 5626 5625 5624 5622 5620 5619 5618 5617 5615
5614 5622 5625 5619 5626 5626 5625 5626 5625 5619 5623 5625 5624 5624 5624 5624 5624 5626 5626 5628 5628 5628 5628 5629 5629 5629 5628 5627 5626 5625 5625 5624 5622 5621 5620 5619 5618 5616 5615 5613 5611 5610 5610 5608
5603 5611 5607 5620 5628 5627 5623 5622 5620 5619 5618 5618 5617 5617 5618 5618 5617 5618 5620 5620 5620 5620 5620 5621 5621 5622 5621 5620 5619 5618 5616 5615 5614 5613 5612 5611 5610 5608 5607 5606 5604 5603 5603 5601
5593 5596 5603 5616 5620 5618 5615 5614 5614 5613 5612 5611 5610 5610 5609 5612 5612 5611 5612 5613 5613 5613 5613 5613 5614 5613 5613 5612 5611 5609 5608 5607 5606 5605 5604 5603 5601 5600 5599 5598 5597 5596 5596 5595
5589 5593 5596 5611 5617 5619 5616 5606 5610 5608 5605 5602 5601 5595 5599 5604 5603 5604 5604 5605 5605 5605 5605 5605 5605 5605 5604 5603 5602 5601 5600 5598 5597 5597 5596 5594 5593 5592 5591 5590 5589 5589 5588 5588
5585 5586 5594 5606 5610 5612 5598 5598 5604 5602 5599 5596 5593 5592 5594 5596 5596 5596 5596 5597 5597 5596 5596 5596 5596 5596 5594 5594 5593 5593 5591 5590 5589 5588 5587 5586 5584 5583 5582 5581 5581 5579 5579 5580
5579 5580 5589 5601 5600 5596 5596 5598 5598 5596 5593 5591 5590 5590 5589 5588 5588 5587 5587 5588 5588 5587 5586 5587 5587 5586 5585 5584 5585 5584 5582 5581 5579 5578 5578 5577 5575 5574 5573 5572 5571 5570 5569 5569
5584 5587 5592 5593 5593 5594 5593 5590 5590 5589 5588 5586 5584 5582 5581 5580 5579 5579 5579 5579 5578 5577 5577 5576 5576 5576 5575 5575 5575 5574 5573 5571 5569 5569 5567 5566 5564 5563 5562 5561 5561 5560 5560 5560
5577 5583 5586 5586 5587 5587 5586 5585 5584 5583 5582 5580 5577 5576 5574 5572 5571 5570 5570 5569 5569 5568 5567 5566 5566 5566 5565 5565 5564 5564 5563 5561 5560 5558 5557 5555 5554 5553 5552 5551 5551 5551 5551 5551
5570 5575 5577 5580 5579 5579 5579 5577 5576 5576 5574 5572 5570 5568 5566 5565 5564 5562 5562 5560 5559 5557 5556 5556 5556 5557 5557 5555 5554 5552 5552 5551 5549 5548 5546 5545 5543 5542 5542 5542 5542 5542 5543 5543
5567 5571 5567 5571 5574 5572 5570 5569 5568 5567 5565 5564 5563 5561 5559 5557 5556 5554 5552 5551 5550 5548 5547 5547 5546 5546 5546 5545 5543 5542 5540 5539 5538 5536 5535 5534 5532 5532 5532 5532 5533 5534 5535 5535
5565 5566 5563 5564 5564 5564 5563 5562 5561 5559 5558 5556 5556 5554 5552 5549 5547 5545 5544 5542 5541 5540 5539 5537 5536 5535 5535 5534 5533 5531 5530 5528 5527 5525 5524 5523 5522 5521 5521 5522 5523 5523 5524 5525
5556 5555 5553 5554 5554 5555 5554 5553 5552 5550 5549 5549 5547 5545 5543 5541 5539 5536 5535 5533 5532 5530 5529 5527 5526 5525 5525 5524 5522 5521 5519 5518 5517 5515 5514 5513 5511 5511 5510 5510 5511 5511 5513 5514
5548 5547 5545 5546 5545 5545 5544 5542 5540 5539 5538 5538 5537 5535 5533 5531 5530 5528 5526 5524 5522 5521 5519 5518 5517 5516 5515 5513 5511 5510 5508 5507 5506 5504 5504 5503 5502 5501 5500 5500 5500 5500 5501 5503
5538 5537 5537 5536 5535 5535 5534 5533 5531 5530 5528 5528 5527 5526 5524 5522 5520 5519 5517 5515 5513 5511 5510 5509 5508 5507 5506 5504 5502 5500 5499 5499 5498 5496 5494 5493 5492 5491 5490 5490 5490 5490 5491 5492
5527 5526 5526 5526 5526 5525 5525 5524 5523 5522 5520 5519 5518 5516 5514 5513 5510 5508 5506 5504 5503 5501 5500 5499 5499 5498 5497 5496 5494 5492 5491 5490 5490 5487 5485 5484 5483 5482 5482 5481 5481 5481 5482 5483
5523 5522 5521 5520 5518 5517 5516 5515 5514 5513 5512 5511 5509 5507 5504 5502 5500 5498 5496 5495 5493 5492 5491 5490 5489 5489 5489 5487 5485 5484 5482 5480 5479 5478 5477 5476 5474 5474 5473 5473 5473 5473 5473 5473
5516 5514 5513 5512 5511 5508 5506 5505 5505 5504 5502 5501 5499 5496 5494 5492 5490 5488 5486 5485 5484 5483 5482 5481 5482 5480 5479 5478 5478 5475 5474 5472 5470 5469 5468 5467 5466 5465 5464 5465 5464 5465 5464 5465
5507 5506 5504 5503 5502 5499 5497 5496 5496 5495 5493 5492 5489 5486 5484 5482 5480 5479 5477 5475 5474 5473 5473 5472 5472 5471 5470 5470 5470 5467 5466 5464 5462 5461 5459 5458 5458 5458 5457 5457 5457 5457 5457 5458
5498 5497 5495 5494 5492 5491 5489 5488 5487 5485 5484 5482 5480 5478 5475 5473 5472 5470 5468 5466 5466 5465 5464 5465 5463 5462 5462 5462 5462 5459 5458 5456 5455 5454 5453 5452 5451 5450 5450 5450 5450 5450 5450 5450
5489 5487 5486 5485 5483 5481 5480 5479 5478 5477 5475 5473 5471 5469 5466 5464 5462 5461 5460 5458 5458 5458 5456 5455 5454 5455 5455 5454 5452 5451 5449 5449 5448 5447 5446 5445 5444 5444 5444 5444 5444 5444 5444 5444
5478 5477 5476 5475 5474 5473 5471 5470 5469 5468 5466 5464 5462 5460 5457 5455 5453 5452 5451 5451 5450 5450 5448 5447 5447 5448 5448 5445 5444 5443 5442 5441 5440 5440 5439 5438 5438 5438 5438 5438 5438 5438 5438 5438
5470 5469 5468 5467 5465 5463 5462 5461 5460 5458 5456 5454 5453 5451 5449 5446 5444 5443 5442 5443 5443 5442 5439 5439 5440 5440 5439 5435 5435 5434 5434 5434 5434 5433 5433 5432 5432 5432 5432 5432 5432 5432 5433 5433
5463 5461 5460 5458 5457 5456 5455 5453 5451 5448 5446 5445 5443 5442 5440 5438 5436 5435 5434 5433 5433 5432 5430 5430 5431 5430 5427 5426 5426 5426 5426 5427 5427 5427 5426 5426 5426 5426 5427 5427 5427 5427 5428 5428
5455 5454 5453 5452 5451 5449 5447 5445 5443 5440 5438 5437 5435 5434 5432 5430 5429 5427 5425 5425 5424 5424 5422 5420 5420 5420 5419 5418 5418 5418 5419 5419 5419 5420 5420 5420 5420 5420 5421 5422 5422 5423 5423 5424
5447 5446 5445 5444 5443 5441 5440 5438 5435 5433 5431 5429 5428 5426 5425 5423 5421 5420 5418 5417 5416 5415 5414 5413 5412 5412 5412 5412 5412 5412 5412 5413 5413 5413 5413 5414 5414 5415 5416 5417 5418 5418 5418 5419